Flag for Belgium Weather past 2 weeks in Brussels, Belgium

Now
61 °F

Cool.


Feels Like: 61 °F
Forecast: 56 / 74 °F
Wind: 2 mph from West

Location: Uccle

Current Time: Jul 29, 2014 at 8:03:58 AM

Latest Report: Jul 29, 2014 at 7:00 AM


Visibility: N/A

Pressure: 29.89 "Hg

Humidity: 92%

Dew point: 58 °F

Location of BrusselsLocation

Historic Weather in Brussels — Graph

°F

Brussels temperature yesterday

Maximum temperature yesterday: 69 °F (at 8:00 PM)
Minimum temperature yesterday: 60 °F (at 11:00 AM)
Average temperature yesterday: 65 °F

Past Weeks' High & Low Weather Summary

 TemperatureHumidityPressure
High91 °F (Jul 18, 7:00 PM)95% (Jul 16, 6:00 AM)30.19 "Hg (Jul 16, 6:00 AM)
Low55 °F (Jul 15, 5:00 AM)32% (Jul 18, 6:00 PM)29.77 "Hg (Jul 19, 9:00 PM)
Average70 °F69%29.99 "Hg
* Reported Jul 14 6:00 AM — Jul 29 6:00 AM, Brussels, Weather by CustomWeather, © 2014

Note: Actual official high and low records may vary slightly from our data, if they occured in-between our weather recording intervals... More about our weather records

Advertising

Brussels weather history for previous 24 hours

 ConditionsComfort  
Time TempWeatherWind HumidityBarometerVisibility
6:00 AM
Jul 29
61 °FCool.2 mph92%29.90 "HgN/A
5:00 AM61 °FCool.2 mph91%29.89 "HgN/A
4:00 AM62 °FCool.2 mph90%29.89 "HgN/A
3:00 AM62 °FCool.2 mph88%29.90 "HgN/A
2:00 AM62 °FCool.2 mph89%29.91 "HgN/A
1:00 AM63 °FMild.2 mph87%29.91 "HgN/A
12:00 AM63 °FMild.2 mph86%29.92 "HgN/A
11:00 PM
Jul 28
64 °FMild.2 mph82%29.91 "HgN/A
10:00 PM65 °FMild.2 mph76%29.91 "HgN/A
9:00 PM68 °FMild.1 mph72%29.89 "HgN/A
8:00 PM69 °FMild.2 mph68%29.87 "HgN/A
7:00 PM68 °FMild.2 mph73%29.88 "HgN/A
6:00 PM68 °FMild.2 mph74%29.87 "HgN/A
5:00 PM67 °FMild.3 mph74%29.87 "HgN/A
4:00 PM66 °FMild.3 mph78%29.88 "HgN/A
3:00 PM66 °FMild.2 mph79%29.89 "HgN/A
2:00 PM64 °FMild.3 mph84%29.89 "HgN/A
1:00 PM64 °FMild.2 mph84%29.89 "HgN/A
12:00 PM62 °FCool.2 mph90%29.90 "HgN/A
11:00 AM60 °FCool.2 mph91%29.91 "HgN/A
10:00 AM61 °FCool.2 mph92%29.90 "HgN/A
9:00 AM65 °FMild.2 mph92%29.89 "HgN/A
8:00 AM65 °FMild.2 mph93%29.89 "HgN/A
Weather by CustomWeather, © 2014

See weather overviewHow to use our weather pages